Location: Hradec Kralove
(50.2170°N, 15.8330°E)
Time: 18:57:40
(UTC+01:00)

Explorer 11/Cluster Stage 4 - Visible Passes

Search period start: 30 January 2023 00:00
Search period end: 09 February 2023 00:00
Orbit: 466 x 1244 km, 28.8° (Epoch: 29 January)

Date Brightness Start Highest point End Pass type
(mag) Time Alt. Az. Time Alt. Az. Time Alt. Az.
30 Jan 10.0 06:50:23 10° S 06:51:05 10° SSE 06:51:45 10° SSE visible
31 Jan 9.8 06:35:23 10° S 06:37:31 11° SSE 06:39:36 10° SSE visible
01 Feb 9.7 06:21:08 10° S 06:23:57 12° S 06:26:43 10° SSE visible
02 Feb 9.7 06:07:06 10° SSW 06:10:21 13° S 06:13:35 10° SE visible
03 Feb 9.6 05:53:12 10° SSW 05:56:44 13° S 06:00:16 10° SE visible
04 Feb 9.5 05:39:25 10° SSW 05:43:07 14° S 05:46:50 10° SE visible
05 Feb 9.5 05:25:44 10° SSW 05:29:29 14° S 05:33:19 10° SE visible
06 Feb 9.4 05:12:07 10° SSW 05:15:51 14° S 05:19:41 10° SE visible
07 Feb 9.3 04:58:36 10° SSW 05:02:13 14° S 05:05:58 10° SSE visible
07 Feb 9.5 06:46:44 10° SSW 06:49:39 12° SSW 06:52:36 10° S visible
08 Feb 9.2 04:46:04 12° SSW 04:48:35 14° S 04:52:09 10° SSE visible
08 Feb 9.5 06:33:37 10° SSW 06:36:00 11° SSW 06:38:25 10° S visible
